Time,TemperatureF,DewpointF,PressureIn,WindDirection,WindDirectionDegrees,WindSpeedMPH,WindSpeedGustMPH,Humidity,HourlyPrecipIn,Conditions,Clouds,dailyrainin,SoftwareType,DateUTC
2013-06-23 00:00:00,73.8,53.2,30.03,NW,315,0.0,2.6,49,0.00,,,0.00,,2013-06-22 22:00:00,
2013-06-23 00:05:00,73.8,53.2,30.03,NW,315,0.0,2.6,49,0.00,,,0.00,,2013-06-22 22:05:00,
2013-06-23 00:10:00,73.8,52.7,30.03,NW,315,1.7,2.2,48,0.00,,,0.00,,2013-06-22 22:10:00,
2013-06-23 00:15:00,73.9,52.9,30.03,SW,225,1.7,3.1,48,0.00,,,0.00,,2013-06-22 22:15:00,
2013-06-23 00:20:00,74.1,53.1,30.03,SSW,202,1.7,2.6,48,0.00,,,0.00,,2013-06-22 22:20:00,
2013-06-23 00:25:00,73.8,52.7,30.03,WNW,292,1.7,3.1,48,0.00,,,0.00,,2013-06-22 22:25:00,
2013-06-23 00:30:00,73.6,53.1,30.03,West,270,1.7,3.1,49,0.00,,,0.00,,2013-06-22 22:30:00,
2013-06-23 00:35:00,73.6,53.1,30.03,West,270,1.7,3.1,49,0.00,,,0.00,,2013-06-22 22:35:00,
2013-06-23 00:40:00,73.4,53.6,30.03,NW,315,1.7,5.3,50,0.00,,,0.00,,2013-06-22 22:40:00,
2013-06-23 00:45:00,73.4,54.1,30.00,WNW,292,1.7,3.1,51,0.00,,,0.00,,2013-06-22 22:45:00,
2013-06-23 00:50:00,73.2,54.0,30.00,NW,315,1.7,3.1,51,0.00,,,0.00,,2013-06-22 22:50:00,
2013-06-23 00:55:00,73.2,54.0,30.03,West,270,1.7,6.2,51,0.00,,,0.00,,2013-06-22 22:55:00,
2013-06-23 01:00:00,73.0,54.3,30.03,NW,315,1.7,4.0,52,0.00,,,0.00,,2013-06-22 23:00:00,
2013-06-23 01:05:00,73.0,54.3,30.00,NW,315,1.7,4.0,52,0.00,,,0.00,,2013-06-22 23:05:00,
2013-06-23 01:10:00,72.9,54.7,30.00,NW,315,1.7,4.0,53,0.00,,,0.00,,2013-06-22 23:10:00,
2013-06-23 01:15:00,72.9,54.7,30.00,NW,315,1.7,4.0,53,0.00,,,0.00,,2013-06-22 23:15:00,
2013-06-23 01:20:00,72.7,55.0,30.00,NW,315,1.7,4.9,54,0.00,,,0.00,,2013-06-22 23:20:00,
2013-06-23 01:25:00,72.7,55.4,30.00,NW,315,1.7,4.0,55,0.00,,,0.00,,2013-06-22 23:25:00,
2013-06-23 01:30:00,72.3,55.6,30.00,NW,315,1.7,4.4,56,0.00,,,0.00,,2013-06-22 23:30:00,
2013-06-23 01:35:00,72.3,55.6,30.00,NW,315,1.7,2.6,56,0.00,,,0.00,,2013-06-22 23:35:00,
2013-06-23 01:40:00,72.5,55.8,30.00,NW,315,1.7,3.1,56,0.00,,,0.00,,2013-06-22 23:40:00,
2013-06-23 01:45:00,72.7,55.9,30.00,NW,315,1.7,3.1,56,0.00,,,0.00,,2013-06-22 23:45:00,
2013-06-23 01:50:00,72.5,55.4,30.00,NW,315,1.7,3.1,55,0.00,,,0.00,,2013-06-22 23:50:00,
2013-06-23 01:55:00,72.5,55.4,30.00,NW,315,1.7,3.1,55,0.00,,,0.00,,2013-06-22 23:55:00,
2013-06-23 02:00:00,72.1,55.0,30.00,North,0,0.0,0.0,55,0.00,,,0.00,,2013-06-23 00:00:00,
2013-06-23 02:05:00,72.1,55.0,30.00,NW,315,1.7,3.1,55,0.00,,,0.00,,2013-06-23 00:05:00,
2013-06-23 02:10:00,72.1,55.4,30.00,NW,315,1.7,3.1,56,0.00,,,0.00,,2013-06-23 00:10:00,
2013-06-23 02:15:00,72.3,55.6,30.00,NW,315,1.7,3.1,56,0.00,,,0.00,,2013-06-23 00:15:00,
2013-06-23 02:20:00,72.1,55.9,30.00,NW,315,1.7,3.1,57,0.00,,,0.00,,2013-06-23 00:20:00,
2013-06-23 02:25:00,72.1,55.9,30.00,NW,315,1.7,3.1,57,0.00,,,0.00,,2013-06-23 00:25:00,
2013-06-23 02:30:00,72.1,55.9,30.00,NW,315,1.7,3.1,57,0.00,,,0.00,,2013-06-23 00:30:00,
2013-06-23 02:35:00,72.1,55.4,30.00,North,0,0.0,0.0,56,0.00,,,0.00,,2013-06-23 00:35:00,
2013-06-23 02:40:00,72.1,55.9,30.00,West,270,1.7,2.2,57,0.00,,,0.00,,2013-06-23 00:40:00,
2013-06-23 02:45:00,72.0,56.8,30.00,West,270,1.7,2.2,59,0.00,,,0.00,,2013-06-23 00:45:00,
2013-06-23 02:50:00,71.6,55.9,30.00,West,270,1.7,2.2,58,0.00,,,0.00,,2013-06-23 00:50:00,
2013-06-23 02:55:00,71.4,56.3,30.00,West,270,2.6,2.6,59,0.00,,,0.00,,2013-06-23 00:55:00,
2013-06-23 03:00:00,71.4,56.3,30.00,NW,315,2.2,2.6,59,0.00,,,0.00,,2013-06-23 01:00:00,
2013-06-23 03:05:00,71.6,56.5,30.00,NW,315,3.1,3.1,59,0.00,,,0.00,,2013-06-23 01:05:00,
2013-06-23 03:10:00,71.6,56.8,30.00,NW,315,2.6,2.6,60,0.00,,,0.00,,2013-06-23 01:10:00,
2013-06-23 03:15:00,71.6,56.8,30.00,NW,315,2.6,2.6,60,0.00,,,0.00,,2013-06-23 01:15:00,
2013-06-23 03:20:00,71.6,56.8,30.00,NW,315,2.6,2.6,60,0.00,,,0.00,,2013-06-23 01:20:00,
2013-06-23 03:25:00,71.2,56.5,30.00,NW,315,1.7,3.1,60,0.00,,,0.00,,2013-06-23 01:25:00,
2013-06-23 03:30:00,71.2,56.1,30.00,NW,315,1.7,3.1,59,0.00,,,0.00,,2013-06-23 01:30:00,
2013-06-23 03:35:00,71.2,56.1,30.00,NW,315,1.7,3.1,59,0.00,,,0.00,,2013-06-23 01:35:00,
2013-06-23 03:40:00,71.1,55.9,30.00,NW,315,1.3,3.1,59,0.00,,,0.00,,2013-06-23 01:40:00,
2013-06-23 03:45:00,70.9,55.8,29.97,NW,315,1.3,3.1,59,0.00,,,0.00,,2013-06-23 01:45:00,
2013-06-23 03:50:00,70.9,56.1,29.97,NW,315,1.3,3.1,60,0.00,,,0.00,,2013-06-23 01:50:00,
2013-06-23 03:55:00,70.5,55.9,29.97,North,0,0.0,0.0,60,0.00,,,0.00,,2013-06-23 01:55:00,
2013-06-23 04:00:00,70.9,56.1,29.97,North,0,0.0,0.0,60,0.00,,,0.00,,2013-06-23 02:00:00,
2013-06-23 04:05:00,71.1,56.8,29.97,North,0,0.0,0.0,61,0.00,,,0.00,,2013-06-23 02:05:00,
2013-06-23 04:10:00,71.2,57.0,29.97,North,0,0.0,0.0,61,0.00,,,0.00,,2013-06-23 02:10:00,
2013-06-23 04:15:00,71.2,57.0,29.97,North,0,0.0,0.0,61,0.00,,,0.00,,2013-06-23 02:15:00,
2013-06-23 04:20:00,71.2,56.5,29.97,NW,315,0.4,3.1,60,0.00,,,0.00,,2013-06-23 02:20:00,
2013-06-23 04:25:00,71.2,56.5,29.97,NW,315,0.4,3.1,60,0.00,,,0.00,,2013-06-23 02:25:00,
2013-06-23 04:30:00,71.1,56.8,29.97,NW,315,0.4,3.1,61,0.00,,,0.00,,2013-06-23 02:30:00,
2013-06-23 04:35:00,70.9,56.7,29.97,NW,315,0.8,3.1,61,0.00,,,0.00,,2013-06-23 02:35:00,
2013-06-23 04:40:00,70.9,56.7,29.97,NW,315,0.8,3.1,61,0.00,,,0.00,,2013-06-23 02:40:00,
2013-06-23 04:45:00,70.9,56.7,29.97,NW,315,0.8,3.1,61,0.00,,,0.00,,2013-06-23 02:45:00,
2013-06-23 04:50:00,71.4,56.7,29.97,North,0,0.0,0.0,60,0.00,,,0.00,,2013-06-23 02:50:00,
2013-06-23 04:55:00,71.4,56.3,29.97,NW,315,0.0,3.1,59,0.00,,,0.00,,2013-06-23 02:55:00,
2013-06-23 05:00:00,71.2,56.1,29.97,NW,315,1.3,3.1,59,0.00,,,0.00,,2013-06-23 03:00:00,
2013-06-23 05:05:00,71.2,56.1,29.97,NW,315,1.3,3.1,59,0.00,,,0.00,,2013-06-23 03:05:00,
2013-06-23 05:10:00,71.2,56.1,29.97,NW,315,1.3,3.1,59,0.00,,,0.00,,2013-06-23 03:10:00,
2013-06-23 05:15:00,71.2,56.1,29.97,North,0,0.0,0.0,59,0.00,,,0.00,,2013-06-23 03:15:00,
2013-06-23 05:20:00,71.2,56.1,29.97,North,0,0.0,0.0,59,0.00,,,0.00,,2013-06-23 03:20:00,
2013-06-23 05:25:00,71.2,56.1,29.97,North,0,0.0,0.0,59,0.00,,,0.00,,2013-06-23 03:25:00,
2013-06-23 05:30:00,71.2,56.1,29.97,North,0,0.0,0.0,59,0.00,,,0.00,,2013-06-23 03:30:00,
2013-06-23 05:35:00,71.2,56.1,29.97,North,0,0.0,0.0,59,0.00,,,0.00,,2013-06-23 03:35:00,
2013-06-23 05:40:00,71.2,56.1,29.97,North,0,0.0,0.0,59,0.00,,,0.00,,2013-06-23 03:40:00,
2013-06-23 05:45:00,71.2,56.1,29.97,North,0,0.0,0.0,59,0.00,,,0.00,,2013-06-23 03:45:00,
2013-06-23 05:50:00,71.2,56.1,29.97,North,0,0.0,0.0,59,0.00,,,0.00,,2013-06-23 03:50:00,
2013-06-23 05:55:00,71.2,56.1,29.97,North,0,0.0,0.0,59,0.00,,,0.00,,2013-06-23 03:55:00,
2013-06-23 06:00:00,-999.0,-99.9,29.97,North,0,0.0,0.0,-999,0.00,,,0.00,,2013-06-23 04:00:00,
2013-06-23 06:05:00,-999.0,-99.9,29.97,North,0,0.0,0.0,-999,0.00,,,0.00,,2013-06-23 04:05:00,
2013-06-23 06:10:00,-999.0,-99.9,29.97,North,0,0.0,0.0,-999,0.00,,,0.00,,2013-06-23 04:10:00,
2013-06-23 06:15:00,70.5,55.4,29.97,North,0,0.0,0.0,59,0.00,,,0.00,,2013-06-23 04:15:00,
2013-06-23 06:20:00,70.5,55.4,29.97,NW,315,0.0,3.1,59,0.00,,,0.00,,2013-06-23 04:20:00,
2013-06-23 06:25:00,70.2,55.6,29.97,NW,315,0.0,3.1,60,0.00,,,0.00,,2013-06-23 04:25:00,
2013-06-23 06:30:00,70.2,55.0,29.97,NW,315,0.0,3.1,59,0.00,,,0.00,,2013-06-23 04:30:00,
2013-06-23 06:35:00,70.0,54.9,29.97,NW,315,0.0,3.1,59,0.00,,,0.00,,2013-06-23 04:35:00,
2013-06-23 06:40:00,70.3,55.2,29.97,NW,315,0.0,3.1,59,0.00,,,0.00,,2013-06-23 04:40:00,
2013-06-23 06:45:00,70.5,55.9,29.97,NW,315,1.7,3.1,60,0.00,,,0.00,,2013-06-23 04:45:00,
2013-06-23 06:50:00,69.8,54.7,29.97,NW,315,2.6,3.1,59,0.00,,,0.00,,2013-06-23 04:50:00,
2013-06-23 06:55:00,69.6,54.1,29.97,NW,315,2.6,3.1,58,0.00,,,0.00,,2013-06-23 04:55:00,
2013-06-23 07:00:00,70.0,54.5,29.97,NW,315,0.8,3.1,58,0.00,,,0.00,,2013-06-23 05:00:00,
2013-06-23 07:05:00,70.0,54.5,29.97,NW,315,2.6,3.1,58,0.00,,,0.00,,2013-06-23 05:05:00,
2013-06-23 07:10:00,70.2,54.1,29.97,NW,315,2.6,3.1,57,0.00,,,0.00,,2013-06-23 05:10:00,
2013-06-23 07:15:00,70.2,53.6,29.97,NW,315,4.0,4.0,56,0.00,,,0.00,,2013-06-23 05:15:00,
2013-06-23 07:20:00,70.3,53.8,29.97,NW,315,0.8,3.1,56,0.00,,,0.00,,2013-06-23 05:20:00,
2013-06-23 07:25:00,70.3,53.2,29.97,NW,315,2.6,3.1,55,0.00,,,0.00,,2013-06-23 05:25:00,
2013-06-23 07:30:00,70.5,53.1,29.97,NW,315,2.2,3.1,54,0.00,,,0.00,,2013-06-23 05:30:00,
2013-06-23 07:35:00,71.1,52.9,29.97,NW,315,2.2,3.1,53,0.00,,,0.00,,2013-06-23 05:35:00,
2013-06-23 07:45:00,71.1,52.5,30.00,NW,315,1.7,3.1,52,0.00,,,0.00,,2013-06-23 05:45:00,
2013-06-23 07:50:00,71.2,52.7,30.00,NW,315,1.7,3.1,52,0.00,,,0.00,,2013-06-23 05:50:00,
2013-06-23 07:55:00,71.8,52.5,29.97,NW,315,1.7,3.1,51,0.00,,,0.00,,2013-06-23 05:55:00,
2013-06-23 08:00:00,71.8,52.0,29.97,NW,315,1.7,3.1,50,0.00,,,0.00,,2013-06-23 06:00:00,
2013-06-23 08:05:00,71.4,51.8,30.00,NW,315,3.1,3.1,50,0.00,,,0.00,,2013-06-23 06:05:00,
2013-06-23 08:10:00,72.1,52.3,30.00,NW,315,0.8,3.1,50,0.00,,,0.00,,2013-06-23 06:10:00,
2013-06-23 08:15:00,73.0,53.2,29.97,NW,315,0.4,3.1,50,0.00,,,0.00,,2013-06-23 06:15:00,
2013-06-23 08:20:00,73.0,52.7,29.97,NW,315,0.4,3.1,49,0.00,,,0.00,,2013-06-23 06:20:00,
2013-06-23 08:25:00,73.0,52.7,30.00,NW,315,0.4,3.1,49,0.00,,,0.00,,2013-06-23 06:25:00,
2013-06-23 08:30:00,73.2,52.9,30.00,NW,315,0.4,3.1,49,0.00,,,0.00,,2013-06-23 06:30:00,
2013-06-23 08:35:00,73.4,53.1,30.00,NW,315,0.4,3.1,49,0.00,,,0.00,,2013-06-23 06:35:00,
2013-06-23 08:40:00,73.8,53.2,30.00,NW,315,2.2,3.1,49,0.00,,,0.00,,2013-06-23 06:40:00,
2013-06-23 08:45:00,74.5,54.5,29.97,NW,315,1.3,3.1,50,0.00,,,0.00,,2013-06-23 06:45:00,
2013-06-23 08:50:00,74.5,54.5,29.97,NW,315,4.0,4.0,50,0.00,,,0.00,,2013-06-23 06:50:00,
2013-06-23 08:55:00,74.7,54.7,29.97,NW,315,1.3,3.1,50,0.00,,,0.00,,2013-06-23 06:55:00,
2013-06-23 09:00:00,79.0,58.1,29.97,NW,315,0.0,3.1,49,0.00,,,0.00,,2013-06-23 07:00:00,
2013-06-23 09:05:00,78.4,57.6,29.97,NW,315,1.3,3.1,49,0.00,,,0.00,,2013-06-23 07:05:00,
2013-06-23 09:10:00,80.1,58.5,29.97,NW,315,1.3,3.1,48,0.00,,,0.00,,2013-06-23 07:10:00,
2013-06-23 09:15:00,82.0,60.3,29.97,NW,315,2.6,3.1,48,0.00,,,0.00,,2013-06-23 07:15:00,
2013-06-23 09:22:00,81.7,50.5,29.97,NW,315,1.7,3.1,34,0.00,,,0.00,,2013-06-23 07:22:00,
2013-06-23 09:29:00,81.7,50.5,29.97,NW,315,0.8,3.1,34,0.00,,,0.00,,2013-06-23 07:29:00,
2013-06-23 09:39:00,81.7,50.5,29.97,NW,315,1.7,3.1,34,0.00,,,0.00,,2013-06-23 07:39:00,
2013-06-23 09:49:00,84.6,45.9,29.97,NE,45,1.7,2.2,26,0.00,,,0.00,,2013-06-23 07:49:00,
2013-06-23 09:59:00,84.6,45.9,29.97,NE,45,1.7,2.2,26,0.00,,,0.00,,2013-06-23 07:59:00,
2013-06-23 10:05:00,85.5,45.5,29.97,NE,45,2.6,2.6,25,0.00,,,0.00,,2013-06-23 08:05:00,
2013-06-23 10:10:00,85.5,45.5,29.97,NE,45,2.6,2.6,25,0.00,,,0.00,,2013-06-23 08:10:00,
2013-06-23 10:15:00,86.4,44.1,29.97,NE,45,2.2,2.2,23,0.00,,,0.00,,2013-06-23 08:15:00,
2013-06-23 10:20:00,86.4,44.1,29.97,NE,45,1.3,2.2,23,0.00,,,0.00,,2013-06-23 08:20:00,
2013-06-23 10:25:00,85.3,45.3,29.97,NE,45,3.5,3.5,25,0.00,,,0.00,,2013-06-23 08:25:00,
2013-06-23 10:30:00,85.3,45.3,29.97,NE,45,2.2,2.2,25,0.00,,,0.00,,2013-06-23 08:30:00,
2013-06-23 10:35:00,85.8,43.7,29.97,NE,45,2.6,2.6,23,0.00,,,0.00,,2013-06-23 08:35:00,
2013-06-23 10:40:00,86.5,44.2,29.97,NE,45,1.3,2.2,23,0.00,,,0.00,,2013-06-23 08:40:00,
2013-06-23 10:45:00,86.5,43.2,29.97,NE,45,0.4,2.6,22,0.00,,,0.00,,2013-06-23 08:45:00,
2013-06-23 10:50:00,86.9,40.8,29.97,NE,45,0.8,2.6,20,0.00,,,0.00,,2013-06-23 08:50:00,
2013-06-23 10:55:00,87.3,41.2,29.97,North,0,4.0,4.0,20,0.00,,,0.00,,2013-06-23 08:55:00,
2013-06-23 11:00:00,87.4,43.9,29.97,NE,45,2.2,3.5,22,0.00,,,0.00,,2013-06-23 09:00:00,
2013-06-23 11:05:00,87.8,44.1,29.97,NW,315,1.7,4.9,22,0.00,,,0.00,,2013-06-23 09:05:00,
2013-06-23 11:10:00,87.6,41.5,29.97,East,90,1.7,3.1,20,0.00,,,0.00,,2013-06-23 09:10:00,
2013-06-23 11:15:00,87.6,41.5,29.97,NW,315,3.1,3.1,20,0.00,,,0.00,,2013-06-23 09:15:00,
2013-06-23 11:20:00,87.3,41.2,29.97,East,90,1.3,1.7,20,0.00,,,0.00,,2013-06-23 09:20:00,
2013-06-23 11:25:00,88.9,42.4,29.97,NW,315,3.1,5.3,20,0.00,,,0.00,,2013-06-23 09:25:00,
2013-06-23 11:30:00,88.9,42.4,29.97,North,0,2.2,4.9,20,0.00,,,0.00,,2013-06-23 09:30:00,
2013-06-23 11:35:00,90.0,43.3,29.97,North,0,3.1,3.5,20,0.00,,,0.00,,2013-06-23 09:35:00,
2013-06-23 11:40:00,89.4,43.0,29.97,East,90,2.6,4.4,20,0.00,,,0.00,,2013-06-23 09:40:00,
2013-06-23 11:45:00,89.4,43.0,29.97,NNW,337,2.2,2.6,20,0.00,,,0.00,,2013-06-23 09:45:00,
2013-06-23 11:50:00,88.7,42.4,29.97,North,0,1.3,4.9,20,0.00,,,0.00,,2013-06-23 09:50:00,
2013-06-23 11:55:00,89.8,43.3,29.97,North,0,0.8,4.9,20,0.00,,,0.00,,2013-06-23 09:55:00,
2013-06-23 12:00:00,89.8,43.3,29.97,NW,315,6.7,6.7,20,0.00,,,0.00,,2013-06-23 10:00:00,
2013-06-23 12:05:00,86.4,40.5,29.97,West,270,4.9,4.9,20,0.00,,,0.00,,2013-06-23 10:05:00,
2013-06-23 12:10:00,88.3,42.1,29.97,North,0,3.1,4.4,20,0.00,,,0.00,,2013-06-23 10:10:00,
2013-06-23 12:15:00,90.9,44.2,29.97,East,90,0.8,2.6,20,0.00,,,0.00,,2013-06-23 10:15:00,
2013-06-23 12:20:00,91.0,44.2,29.97,North,0,3.1,3.5,20,0.00,,,0.00,,2013-06-23 10:20:00,
2013-06-23 12:25:00,88.7,42.4,29.97,NE,45,2.2,5.8,20,0.00,,,0.00,,2013-06-23 10:25:00,
2013-06-23 12:30:00,90.7,44.1,29.97,East,90,3.1,7.6,20,0.00,,,0.00,,2013-06-23 10:30:00,
2013-06-23 12:35:00,90.7,44.1,29.97,NNW,337,1.7,4.4,20,0.00,,,0.00,,2013-06-23 10:35:00,
2013-06-23 12:40:00,90.7,44.1,29.97,NW,315,4.4,7.6,20,0.00,,,0.00,,2013-06-23 10:40:00,
2013-06-23 12:45:00,88.7,42.4,29.94,NW,315,2.2,3.1,20,0.00,,,0.00,,2013-06-23 10:45:00,
2013-06-23 12:50:00,91.0,44.2,29.94,SE,135,2.2,2.6,20,0.00,,,0.00,,2013-06-23 10:50:00,
2013-06-23 12:55:00,90.1,43.5,29.94,NW,315,2.2,6.7,20,0.00,,,0.00,,2013-06-23 10:55:00,
2013-06-23 13:00:00,88.0,41.7,29.94,West,270,3.5,4.0,20,0.00,,,0.00,,2013-06-23 11:00:00,
2013-06-23 13:05:00,89.6,43.2,29.94,NW,315,3.5,8.9,20,0.00,,,0.00,,2013-06-23 11:05:00,
2013-06-23 13:10:00,89.6,43.2,29.94,North,0,4.9,6.7,20,0.00,,,0.00,,2013-06-23 11:10:00,
2013-06-23 13:15:00,89.6,43.2,29.94,NW,315,1.7,3.1,20,0.00,,,0.00,,2013-06-23 11:15:00,
2013-06-23 13:20:00,89.6,43.2,29.94,North,0,5.8,5.8,20,0.00,,,0.00,,2013-06-23 11:20:00,
2013-06-23 13:25:00,89.2,42.8,29.94,North,0,5.8,10.7,20,0.00,,,0.00,,2013-06-23 11:25:00,
2013-06-23 13:30:00,89.8,43.3,29.94,NW,315,6.2,8.5,20,0.00,,,0.00,,2013-06-23 11:30:00,
2013-06-23 13:35:00,89.1,42.6,29.94,West,270,4.4,4.4,20,0.00,,,0.00,,2013-06-23 11:35:00,
2013-06-23 13:40:00,89.1,42.6,29.94,South,180,4.4,4.4,20,0.00,,,0.00,,2013-06-23 11:40:00,
2013-06-23 13:45:00,93.9,46.6,29.94,West,270,2.2,4.9,20,0.00,,,0.00,,2013-06-23 11:45:00,
2013-06-23 13:50:00,93.4,46.2,29.94,NW,315,4.4,7.6,20,0.00,,,0.00,,2013-06-23 11:50:00,
2013-06-23 13:55:00,91.0,44.2,29.94,West,270,4.9,5.3,20,0.00,,,0.00,,2013-06-23 11:55:00,
2013-06-23 14:00:00,91.2,44.4,29.94,NW,315,9.3,9.3,20,0.00,,,0.00,,2013-06-23 12:00:00,
2013-06-23 14:05:00,87.3,41.2,29.94,NW,315,11.6,11.6,20,0.00,,,0.00,,2013-06-23 12:05:00,
2013-06-23 14:10:00,88.2,41.9,29.94,NW,315,11.6,15.6,20,0.00,,,0.00,,2013-06-23 12:10:00,
2013-06-23 14:15:00,87.8,41.7,29.94,NW,315,12.5,14.7,20,0.00,,,0.00,,2013-06-23 12:15:00,
2013-06-23 14:20:00,87.8,41.7,29.94,NW,315,9.8,17.0,20,0.00,,,0.00,,2013-06-23 12:20:00,
2013-06-23 14:25:00,87.1,41.0,29.94,NW,315,12.0,17.4,20,0.00,,,0.00,,2013-06-23 12:25:00,
2013-06-23 14:30:00,87.6,41.5,29.94,West,270,9.8,9.8,20,0.00,,,0.00,,2013-06-23 12:30:00,
2013-06-23 14:40:00,86.9,43.3,29.94,NW,315,12.0,16.1,22,0.00,,,0.00,,2013-06-23 12:40:00,
2013-06-23 14:45:00,86.4,43.0,29.94,NW,315,12.0,15.6,22,0.00,,,0.00,,2013-06-23 12:45:00,
2013-06-23 14:50:00,86.9,43.3,29.94,NW,315,10.7,15.2,22,0.00,,,0.00,,2013-06-23 12:50:00,
2013-06-23 14:55:00,86.9,43.3,29.94,NW,315,10.2,10.2,22,0.00,,,0.00,,2013-06-23 12:55:00,
2013-06-23 15:00:00,86.9,43.3,29.94,NE,45,10.2,10.2,22,0.00,,,0.00,,2013-06-23 13:00:00,
2013-06-23 15:05:00,86.9,43.3,29.94,North,0,11.1,13.8,22,0.00,,,0.00,,2013-06-23 13:05:00,
2013-06-23 15:10:00,87.4,45.0,29.94,NNW,337,11.6,11.6,23,0.00,,,0.00,,2013-06-23 13:10:00,
2013-06-23 15:15:00,86.0,45.0,29.94,NW,315,12.0,13.4,24,0.00,,,0.00,,2013-06-23 13:15:00,
2013-06-23 15:20:00,86.7,45.5,29.94,NW,315,12.0,14.7,24,0.00,,,0.00,,2013-06-23 13:20:00,
2013-06-23 15:25:00,85.8,44.8,29.94,North,0,11.6,12.5,24,0.00,,,0.00,,2013-06-23 13:25:00,
2013-06-23 15:30:00,86.9,44.6,29.94,NW,315,10.2,11.6,23,0.00,,,0.00,,2013-06-23 13:30:00,
2013-06-23 15:40:00,86.4,40.5,29.91,NW,315,12.9,15.6,20,0.00,,,0.00,,2013-06-23 13:40:00,
2013-06-23 15:45:00,86.4,40.5,29.91,NW,315,12.9,15.6,20,0.00,,,0.00,,2013-06-23 13:45:00,
2013-06-23 15:50:00,86.4,40.5,29.91,NW,315,11.6,13.8,20,0.00,,,0.00,,2013-06-23 13:50:00,
2013-06-23 15:55:00,87.1,41.0,29.91,West,270,12.0,13.8,20,0.00,,,0.00,,2013-06-23 13:55:00,
2013-06-23 16:00:00,87.1,41.0,29.91,NW,315,10.7,12.5,20,0.00,,,0.00,,2013-06-23 14:00:00,
2013-06-23 16:05:00,88.5,42.3,29.91,NW,315,9.3,9.8,20,0.00,,,0.00,,2013-06-23 14:05:00,
2013-06-23 16:10:00,87.3,41.2,29.91,NW,315,12.0,13.4,20,0.00,,,0.00,,2013-06-23 14:10:00,
2013-06-23 16:15:00,87.4,41.4,29.91,NW,315,8.9,12.9,20,0.00,,,0.00,,2013-06-23 14:15:00,
2013-06-23 16:20:00,87.8,41.7,29.91,NW,315,10.7,12.9,20,0.00,,,0.00,,2013-06-23 14:20:00,
2013-06-23 16:25:00,86.5,40.6,29.94,NW,315,12.0,13.4,20,0.00,,,0.00,,2013-06-23 14:25:00,
2013-06-23 16:30:00,86.5,40.6,29.94,West,270,13.4,16.5,20,0.00,,,0.00,,2013-06-23 14:30:00,
2013-06-23 16:35:00,86.5,40.6,29.91,NW,315,11.6,11.6,20,0.00,,,0.00,,2013-06-23 14:35:00,
2013-06-23 16:40:00,86.7,40.8,29.91,NW,315,12.5,12.5,20,0.00,,,0.00,,2013-06-23 14:40:00,
2013-06-23 16:45:00,86.5,40.6,29.91,NW,315,11.1,12.0,20,0.00,,,0.00,,2013-06-23 14:45:00,
2013-06-23 16:50:00,86.7,40.8,29.91,NNW,337,11.1,11.1,20,0.00,,,0.00,,2013-06-23 14:50:00,
2013-06-23 16:55:00,86.5,40.6,29.91,North,0,9.8,9.8,20,0.00,,,0.00,,2013-06-23 14:55:00,
2013-06-23 17:00:00,86.5,40.6,29.91,NW,315,12.0,13.4,20,0.00,,,0.00,,2013-06-23 15:00:00,
2013-06-23 17:10:00,84.7,41.5,29.94,NW,315,12.0,12.0,22,0.00,,,0.00,,2013-06-23 15:10:00,
2013-06-23 17:15:00,85.5,43.3,29.94,NW,315,10.7,13.8,23,0.00,,,0.00,,2013-06-23 15:15:00,
2013-06-23 17:20:00,85.5,43.3,29.94,North,0,8.5,8.9,23,0.00,,,0.00,,2013-06-23 15:20:00,
2013-06-23 17:25:00,85.6,42.3,29.91,NW,315,10.2,14.7,22,0.00,,,0.00,,2013-06-23 15:25:00,
2013-06-23 17:30:00,85.6,42.3,29.91,NW,315,8.0,11.1,22,0.00,,,0.00,,2013-06-23 15:30:00,
2013-06-23 17:40:00,85.6,41.2,29.94,NW,315,9.3,9.3,21,0.00,,,0.00,,2013-06-23 15:40:00,
2013-06-23 17:45:00,85.8,42.4,29.91,NW,315,9.8,13.4,22,0.00,,,0.00,,2013-06-23 15:45:00,
2013-06-23 17:50:00,84.7,41.5,29.91,NNW,337,10.7,10.7,22,0.00,,,0.00,,2013-06-23 15:50:00,
2013-06-23 17:55:00,85.6,43.5,29.91,NW,315,10.2,10.2,23,0.00,,,0.00,,2013-06-23 15:55:00,
2013-06-23 18:00:00,84.9,46.0,29.91,NW,315,10.2,10.2,26,0.00,,,0.00,,2013-06-23 16:00:00,
2013-06-23 18:05:00,84.6,45.9,29.91,NW,315,10.7,10.7,26,0.00,,,0.00,,2013-06-23 16:05:00,
2013-06-23 18:10:00,83.5,45.0,29.91,NW,315,10.7,12.5,26,0.00,,,0.00,,2013-06-23 16:10:00,
2013-06-23 18:15:00,83.8,46.2,29.94,NW,315,10.7,15.2,27,0.00,,,0.00,,2013-06-23 16:15:00,
2013-06-23 18:20:00,83.7,48.0,29.94,NW,315,11.6,11.6,29,0.00,,,0.00,,2013-06-23 16:20:00,
2013-06-23 18:25:00,83.5,47.8,29.91,NW,315,8.9,10.2,29,0.00,,,0.00,,2013-06-23 16:25:00,
2013-06-23 18:30:00,83.3,46.8,29.91,NW,315,9.8,12.9,28,0.00,,,0.00,,2013-06-23 16:30:00,
2013-06-23 18:40:00,83.1,46.6,29.91,NW,315,8.5,9.3,28,0.00,,,0.00,,2013-06-23 16:40:00,
2013-06-23 18:45:00,83.1,47.5,29.94,NW,315,7.6,8.5,29,0.00,,,0.00,,2013-06-23 16:45:00,
2013-06-23 18:50:00,82.8,47.1,29.94,NW,315,10.2,10.2,29,0.00,,,0.00,,2013-06-23 16:50:00,
2013-06-23 18:55:00,82.8,47.1,29.91,NW,315,10.2,10.2,29,0.00,,,0.00,,2013-06-23 16:55:00,
2013-06-23 19:00:00,81.9,49.8,29.91,NW,315,11.1,13.4,33,0.00,,,0.00,,2013-06-23 17:00:00,
2013-06-23 19:10:00,81.7,48.9,29.94,NW,315,8.0,9.8,32,0.00,,,0.00,,2013-06-23 17:10:00,
2013-06-23 19:15:00,81.3,47.7,29.94,NW,315,7.6,9.3,31,0.00,,,0.00,,2013-06-23 17:15:00,
2013-06-23 19:20:00,81.3,49.3,29.94,NW,315,7.1,9.3,33,0.00,,,0.00,,2013-06-23 17:20:00,
2013-06-23 19:25:00,81.3,48.6,29.94,NW,315,7.1,9.3,32,0.00,,,0.00,,2013-06-23 17:25:00,
2013-06-23 19:30:00,80.8,48.9,29.94,NW,315,5.8,7.6,33,0.00,,,0.00,,2013-06-23 17:30:00,
2013-06-23 19:35:00,81.1,47.5,29.94,NW,315,11.6,11.6,31,0.00,,,0.00,,2013-06-23 17:35:00,
2013-06-23 19:40:00,80.1,44.8,29.94,NW,315,7.6,11.1,29,0.00,,,0.00,,2013-06-23 17:40:00,
2013-06-23 19:45:00,80.1,45.7,29.94,WNW,292,8.5,8.5,30,0.00,,,0.00,,2013-06-23 17:45:00,
2013-06-23 19:50:00,79.5,44.4,29.94,West,270,8.0,8.0,29,0.00,,,0.00,,2013-06-23 17:50:00,
2013-06-23 19:55:00,79.0,44.8,29.94,NW,315,9.3,10.7,30,0.00,,,0.00,,2013-06-23 17:55:00,
2013-06-23 20:00:00,78.8,41.0,29.94,NW,315,7.1,10.7,26,0.00,,,0.00,,2013-06-23 18:00:00,
2013-06-23 20:05:00,78.3,43.3,29.94,WNW,292,6.2,8.5,29,0.00,,,0.00,,2013-06-23 18:05:00,
2013-06-23 20:10:00,78.3,43.3,29.94,NW,315,6.2,6.2,29,0.00,,,0.00,,2013-06-23 18:10:00,
2013-06-23 20:15:00,77.9,45.5,29.91,West,270,4.9,8.5,32,0.00,,,0.00,,2013-06-23 18:15:00,
2013-06-23 20:20:00,77.7,45.3,29.91,West,270,4.9,5.8,32,0.00,,,0.00,,2013-06-23 18:20:00,
2013-06-23 22:39:00,70.5,54.5,29.94,NW,315,3.1,4.9,57,0.00,,,0.00,,2013-06-23 20:39:00,
2013-06-23 22:44:00,70.5,54.5,29.94,NW,315,4.0,4.9,57,0.00,,,0.00,,2013-06-23 20:44:00,
2013-06-23 22:49:00,70.5,54.5,29.94,North,0,3.5,3.5,57,0.00,,,0.00,,2013-06-23 20:49:00,
2013-06-23 22:54:00,70.5,54.5,29.94,NW,315,3.5,7.6,57,0.00,,,0.00,,2013-06-23 20:54:00,
2013-06-23 22:59:00,70.5,54.5,29.94,NW,315,3.5,4.0,57,0.00,,,0.00,,2013-06-23 20:59:00,
2013-06-23 23:04:00,70.5,54.5,29.94,NW,315,3.5,4.0,57,0.00,,,0.00,,2013-06-23 21:04:00,
2013-06-23 23:09:00,70.5,54.5,29.94,NW,315,3.5,4.0,57,0.00,,,0.00,,2013-06-23 21:09:00,
2013-06-23 23:14:00,70.2,55.9,29.94,West,270,3.5,5.3,61,0.00,,,0.00,,2013-06-23 21:14:00,
2013-06-23 23:19:00,70.2,55.9,29.94,West,270,2.6,5.3,61,0.00,,,0.00,,2013-06-23 21:19:00,
2013-06-23 23:24:00,70.2,55.9,29.94,West,270,2.6,5.3,61,0.00,,,0.00,,2013-06-23 21:24:00,
2013-06-23 23:29:00,70.2,55.9,29.94,West,270,2.6,5.3,61,0.00,,,0.00,,2013-06-23 21:29:00,
2013-06-23 23:34:00,70.2,55.9,29.94,NW,315,2.6,5.3,61,0.00,,,0.00,,2013-06-23 21:34:00,
2013-06-23 23:39:00,70.2,55.9,29.94,NW,315,2.6,4.0,61,0.00,,,0.00,,2013-06-23 21:39:00,
2013-06-23 23:44:00,70.2,55.9,29.94,NW,315,2.6,4.0,61,0.00,,,0.00,,2013-06-23 21:44:00,
2013-06-23 23:49:00,70.0,56.3,29.94,NW,315,2.6,4.0,62,0.00,,,0.00,,2013-06-23 21:49:00,
2013-06-23 23:54:00,70.0,56.3,29.94,NW,315,2.6,4.9,62,0.00,,,0.00,,2013-06-23 21:54:00,
2013-06-23 23:59:00,70.0,56.3,29.94,NW,315,2.6,4.9,62,0.00,,,0.00,,2013-06-23 21:59:00,